Wetbulb
52.95 52.79 53.20 53.22 53.28 53.23 53.18 53.06 53.57 54.06 53.82 53.05 53.27 53.11 53.79 54.39 52.77 47.58 44.34 48.20 48.89 52.68 51.45 48.90 47.82 46.41 47.26 44.13 48.48 50.12 39.81 35.70 38.48 40.03 42.66 49.09 48.14 52.93 52.64 51.56 54.73 56.30 56.16 59.87 63.39
52.06 52.65 53.17 53.45 53.41 53.49 53.21 53.02 53.49 53.59 53.82 53.31 53.45 53.64 53.82 53.56 47.97 45.14 51.94 55.31 52.74 53.05 48.39 45.60 42.79 43.98 41.63 41.90 43.81 42.93 35.99 35.75 41.21 43.30 43.17 45.11 44.80 45.76 46.91 49.76 50.93 53.57 56.99 57.21 58.50
51.46 51.74 52.58 53.78 54.33 53.59 53.65 53.14 53.13 53.61 54.04 54.08 53.89 53.58 53.37 51.33 42.30 43.84 52.12 54.01 53.11 50.45 47.16 47.31 45.85 42.52 37.02 40.67 39.53 38.77 34.21 37.69 40.07 42.43 43.06 42.37 43.31 46.68 44.71 44.59 49.42 50.56 51.65 53.07 53.68
52.11 52.16 52.26 53.54 53.55 53.59 53.47 53.25 53.26 53.57 53.96 53.94 54.05 53.70 52.33 47.67 31.85 44.64 51.96 52.23 51.02 49.22 47.50 43.88 41.91 37.84 35.67 33.86 38.46 34.07 37.08 38.21 38.48 39.90 39.03 38.27 41.64 41.15 43.34 45.15 49.05 49.62 50.06 50.06 52.28
52.76 52.83 52.72 52.61 52.74 53.10 52.96 53.18 53.40 53.68 53.89 54.14 54.14 53.47 48.97 41.74 40.93 48.30 50.07 48.49 47.30 46.20 44.08 41.73 38.09 36.72 33.39 34.96 36.23 34.35 35.65 36.93 37.94 38.02 38.29 38.85 37.05 37.73 39.39 43.91 45.68 46.15 46.82 47.85 51.79
52.77 52.78 52.60 52.37 52.56 52.90 53.32 53.53 53.73 53.88 54.14 54.31 54.28 52.75 45.44 36.73 47.00 48.36 47.23 46.32 45.41 43.93 41.78 41.28 38.17 38.76 35.34 34.26 33.64 35.96 35.89 36.04 37.33 36.81 37.70 35.92 36.50 37.62 38.22 41.79 42.40 44.17 45.98 48.76 51.57
52.65 52.66 52.85 53.12 53.42 53.71 53.89 54.03 54.22 54.22 54.17 54.01 53.93 50.81 43.66 41.32 47.80 48.02 46.32 45.95 45.94 44.46 41.11 43.19 42.53 38.36 37.61 34.02 37.74 36.18 31.79 34.75 35.58 35.88 34.76 37.05 32.34 33.47 39.13 40.26 39.29 40.75 43.48 45.96 47.94
52.86 53.53 53.20 53.54 53.40 53.26 53.10 53.17 53.48 53.58 53.44 53.36 52.62 48.54 39.58 46.96 48.98 46.35 46.89 45.38 46.59 46.62 44.56 44.83 43.51 39.69 37.49 38.38 35.16 31.60 32.14 27.12 33.92 34.89 35.28 34.63 28.16 36.32 38.36 38.26 38.14 39.52 41.20 42.99 46.53
52.95 53.59 52.85 52.62 52.67 52.63 52.53 52.80 52.83 52.34 50.16 50.02 47.11 44.51 36.90 47.17 41.62 44.30 45.39 42.02 43.52 43.88 43.98 44.22 42.13 36.76 36.30 31.52 28.45 29.56 24.10 26.83 29.64 35.36 33.46 32.93 30.06 36.45 38.23 37.38 36.66 37.81 38.72 40.77 44.48
53.26 52.33 51.96 51.73 51.87 51.89 52.15 51.57 47.51 47.32 46.80 46.82 45.00 38.23 39.61 36.15 39.91 42.01 44.66 43.93 41.17 41.04 39.53 38.71 36.80 33.35 32.65 29.11 21.31 24.58 23.85 26.36 26.65 31.69 32.28 30.67 30.34 35.13 37.46 36.94 36.94 38.09 39.61 40.96 42.15
52.48 52.15 51.28 51.04 51.31 51.28 47.54 45.04 41.27 39.14 39.67 34.79 34.44 35.76 36.74 40.39 41.44 38.95 41.70 41.12 40.51 37.37 31.28 35.41 30.67 27.12 30.09 31.28 31.32 30.73 28.43 26.05 30.44 32.95 29.79 29.87 30.33 33.13 36.25 36.95 36.78 37.91 38.97 39.79 41.01
51.90 52.11 50.74 50.96 51.27 47.97 45.71 39.92 38.68 39.33 33.10 36.00 35.31 35.36 37.67 38.36 34.05 38.26 42.14 35.81 33.73 29.64 34.15 31.49 27.18 33.18 34.91 33.87 30.74 29.06 27.09 27.20 30.39 32.26 28.95 28.88 28.93 32.92 34.79 35.16 36.40 37.03 38.22 39.91 41.59
51.95 51.52 50.87 51.30 48.13 45.75 42.62 40.43 42.87 40.95 31.19 31.56 33.94 33.85 36.28 38.10 33.89 34.79 39.20 36.89 32.48 30.66 31.24 28.45 32.04 35.62 33.10 31.33 29.23 28.96 26.76 27.18 26.47 29.62 29.65 28.01 25.98 29.39 33.98 35.45 36.42 37.38 38.22 38.87 39.95
52.81 52.14 51.21 49.92 44.73 43.01 40.82 43.05 41.09 39.53 26.96 27.36 30.00 34.07 35.85 35.18 30.83 39.01 40.52 38.08 34.86 30.89 31.81 31.37 34.80 32.17 31.44 29.38 30.69 26.89 32.21 30.00 27.84 26.56 20.78 29.10 17.36 27.75 31.91 32.68 34.36 36.05 37.32 38.03 39.82
52.27 51.93 50.71 46.94 43.55 41.20 41.20 41.56 40.58 37.95 17.41 27.79 29.30 37.72 35.29 30.43 33.09 35.97 41.88 38.37 31.64 31.46 31.38 29.65 31.90 31.58 29.64 30.16 32.74 29.76 33.61 30.48 28.39 25.92 24.44 24.55 19.76 25.17 31.21 29.64 32.28 35.35 36.95 38.64 40.58
52.61 50.01 47.61 44.90 43.63 40.82 41.61 38.52 38.13 26.16 17.17 20.03 27.53 27.44 26.71 29.42 30.96 34.63 36.02 39.98 38.33 32.69 33.64 31.91 36.58 33.74 32.43 34.21 34.07 33.17 29.21 28.48 27.88 25.91 17.86 22.55 21.22 22.36 27.13 30.18 32.95 35.77 36.86 38.83 41.30
49.39 46.34 43.49 42.76 39.57 40.80 39.75 36.91 26.79 19.79 21.63 21.41 21.74 26.43 25.16 24.33 27.76 30.18 28.92 29.43 28.57 25.81 26.42 30.30 31.68 34.06 34.88 31.36 33.12 31.00 26.21 18.50 16.67 16.82 15.37 21.99 21.20 23.27 30.38 34.07 35.15 36.14 36.92 40.50 42.80
46.08 43.89 41.19 39.53 40.28 39.60 37.39 32.59 18.97 11.54 15.09 23.83 24.98 24.57 21.54 25.31 26.82 26.24 26.74 26.87 31.76 30.29 27.13 21.91 20.65 31.19 34.71 31.98 29.37 28.02 26.12 18.96 11.10 12.68 17.97 20.77 17.03 24.44 31.82 34.04 35.65 37.46 39.41 39.94 38.72
44.77 40.59 39.69 39.10 39.12 38.55 35.07 23.92 20.43 16.61 23.04 22.16 23.65 19.58 20.62 23.30 24.13 24.36 24.72 24.93 29.82 32.21 23.63 21.23 22.95 32.99 33.35 34.96 33.33 28.58 24.09 28.91 22.87 23.09 19.24 21.78 25.75 29.77 31.05 32.04 35.86 35.50 35.78 35.79 36.25
40.35 38.50 37.50 37.41 36.22 34.89 30.70 21.33 18.62 22.28 25.50 24.66 18.26 19.43 16.64 20.40 21.71 23.33 22.69 28.54 28.57 32.20 32.23 26.11 20.74 32.45 33.30 34.60 33.16 30.53 31.98 22.92 24.79 14.92 16.40 21.18 20.76 19.48 25.81 28.45 31.34 31.39 31.52 32.72 34.75
38.86 35.10 37.36 35.06 35.28 31.18 25.25 19.34 17.49 25.00 26.95 22.63 19.94 19.85 21.03 20.58 22.47 21.59 23.14 28.52 31.43 29.63 30.37 29.17 26.04 28.28 32.81 27.77 25.45 27.76 26.50 28.19 28.28 24.02 20.81 17.05 18.09 27.10 27.79 29.16 29.31 30.60 31.95 32.96 33.52
36.33 32.21 36.30 35.45 31.09 16.80 21.88 16.73 23.55 25.92 29.54 26.58 26.46 24.79 22.59 23.41 22.56 21.87 23.12 26.72 32.47 30.57 25.67 29.24 26.43 23.64 25.87 31.86 31.64 29.15 28.17 28.72 23.28 21.45 23.11 21.28 17.85 28.95 30.11 30.25 30.15 29.94 31.22 32.27 32.99
33.68 33.08 35.48 34.60 27.76 22.30 18.42 20.51 23.58 25.08 25.50 25.94 24.71 27.01 27.30 23.51 20.54 23.87 25.94 31.20 31.93 29.84 27.68 30.27 26.93 20.79 23.61 27.48 29.90 27.25 28.43 30.69 28.47 26.56 19.32 18.19 17.55 29.18 30.10 29.16 30.11 29.83 30.94 31.71 31.72
33.92 29.90 32.10 28.12 25.17 23.91 20.36 21.02 21.72 26.18 26.75 27.76 26.68 27.45 25.64 22.91 24.72 22.59 25.15 29.42 32.18 30.39 32.31 33.28 27.61 23.78 18.41 23.07 26.11 22.34 26.14 27.14 26.04 19.86 18.57 19.27 19.96 24.28 26.95 27.84 29.17 29.27 29.91 29.98 30.53
31.58 27.57 27.36 26.58 25.14 23.96 24.76 22.98 21.64 22.15 27.22 28.05 24.18 24.80 23.36 20.67 21.78 20.23 25.78 27.61 30.95 30.53 29.29 27.02 24.37 25.88 26.24 27.53 26.68 24.37 23.65 25.53 24.12 24.25 18.68 20.53 19.96 23.53 26.49 27.80 29.10 29.86 29.60 28.73 28.66
30.22 29.28 27.28 23.68 25.95 26.24 24.12 23.87 22.84 23.47 25.31 23.60 23.27 25.67 25.50 22.23 25.00 22.46 24.30 24.92 24.75 26.58 26.17 26.76 24.30 22.22 23.51 24.96 27.03 22.94 23.40 25.48 24.56 25.30 24.19 23.82 21.56 27.73 28.30 29.49 29.18 28.95 29.40 28.47 28.46
31.47 32.45 32.45 26.90 25.41 25.52 25.32 25.20 25.48 26.53 27.71 28.46 27.10 24.42 22.83 25.79 28.64 29.13 28.81 27.94 26.32 23.54 23.37 22.67 19.04 18.65 23.74 21.30 24.95 20.43 20.72 22.57 25.00 25.64 25.59 20.11 24.64 27.59 25.30 25.52 26.11 28.94 28.70 28.15 28.34
MSLP
1026.31 1026.20 1026.09 1025.93 1025.79 1025.71 1025.58 1025.36 1025.10 1024.75 1024.49 1024.34 1024.10 1023.69 1023.32 1022.88 1022.68 1021.79 1021.51 1021.65 1021.35 1021.29 1021.11 1020.76 1020.42 1020.05 1019.77 1019.30 1019.15 1018.43 1017.14 1014.48 1013.66 1013.24 1012.61 1012.68 1013.00 1012.83 1013.22 1012.47 1011.66 1011.41 1011.31 1011.89 1012.32
1026.29 1026.22 1026.07 1025.87 1025.70 1025.62 1025.45 1025.26 1025.00 1024.84 1024.56 1024.22 1024.11 1023.79 1023.24 1022.92 1022.49 1021.87 1021.90 1021.07 1021.38 1021.28 1021.08 1020.94 1020.60 1020.41 1019.93 1019.79 1019.47 1018.69 1017.08 1015.74 1015.35 1015.17 1014.45 1014.59 1014.71 1014.65 1014.11 1012.75 1012.37 1012.10 1011.96 1012.64 1012.91
1026.20 1026.05 1025.96 1025.84 1025.54 1025.53 1025.35 1025.21 1025.03 1024.72 1024.41 1024.09 1023.95 1023.76 1023.41 1023.14 1022.41 1021.94 1021.91 1021.76 1021.71 1021.60 1021.35 1021.30 1021.20 1020.88 1020.40 1020.30 1019.73 1018.97 1017.67 1017.03 1016.85 1016.69 1016.47 1015.82 1015.25 1014.93 1014.60 1013.56 1013.24 1012.86 1013.19 1012.99 1013.03
1026.08 1025.99 1025.86 1025.79 1025.64 1025.49 1025.32 1025.10 1024.86 1024.53 1024.19 1023.86 1023.79 1023.67 1023.49 1023.18 1022.69 1022.00 1021.95 1021.95 1022.00 1021.82 1021.64 1021.55 1021.33 1021.12 1020.90 1020.46 1020.28 1019.67 1018.84 1018.62 1017.96 1017.84 1017.47 1016.72 1016.08 1015.27 1014.85 1014.28 1014.22 1014.13 1014.05 1013.72 1013.27
1025.93 1025.83 1025.74 1025.58 1025.46 1025.38 1025.17 1025.01 1024.71 1024.46 1024.10 1023.74 1023.54 1023.61 1023.47 1023.09 1022.31 1022.02 1022.09 1022.14 1021.99 1021.90 1021.79 1021.71 1021.52 1021.35 1021.07 1020.79 1020.58 1019.86 1019.29 1018.97 1018.72 1018.56 1017.98 1017.38 1016.45 1015.87 1014.78 1014.94 1014.99 1014.28 1014.00 1013.74 1013.33
1025.82 1025.71 1025.54 1025.46 1025.27 1025.05 1024.94 1024.71 1024.42 1024.23 1023.93 1023.62 1023.39 1023.61 1023.57 1022.94 1022.13 1022.09 1022.12 1022.14 1022.10 1021.95 1021.86 1021.95 1021.80 1021.87 1021.47 1021.13 1020.95 1020.03 1019.71 1019.10 1018.75 1018.55 1018.07 1017.38 1016.34 1015.85 1014.54 1014.41 1014.60 1014.18 1013.64 1013.43 1012.99
1025.70 1025.58 1025.45 1025.22 1024.99 1024.72 1024.53 1024.29 1024.17 1023.92 1023.67 1023.36 1023.16 1023.47 1023.28 1022.38 1022.16 1022.15 1022.24 1022.11 1022.09 1022.04 1021.90 1022.04 1022.09 1022.13 1021.87 1021.26 1021.09 1020.62 1019.77 1018.59 1017.80 1017.62 1017.54 1017.40 1015.49 1014.29 1014.64 1014.46 1013.73 1013.47 1013.30 1013.06 1012.81
1025.53 1025.43 1025.27 1024.92 1024.70 1024.49 1024.25 1023.95 1023.80 1023.66 1023.48 1023.18 1023.04 1023.15 1022.57 1022.37 1022.30 1022.15 1021.99 1021.86 1021.94 1021.98 1022.08 1022.01 1022.23 1022.23 1022.04 1021.69 1021.29 1020.79 1020.03 1018.44 1016.69 1016.85 1017.25 1017.39 1013.73 1013.58 1013.77 1013.83 1013.34 1012.99 1012.79 1012.52 1012.33
1025.17 1025.10 1024.98 1024.79 1024.55 1024.33 1024.02 1023.68 1023.38 1023.37 1023.29 1023.04 1022.99 1022.84 1022.38 1022.25 1022.18 1022.02 1022.02 1021.79 1021.76 1021.83 1021.99 1021.98 1022.18 1022.34 1022.36 1021.80 1020.94 1020.43 1019.04 1017.86 1017.15 1016.89 1017.05 1016.77 1014.12 1013.02 1013.43 1013.26 1012.91 1012.51 1012.34 1012.09 1011.92
1025.01 1024.86 1024.73 1024.57 1024.37 1024.09 1023.76 1023.36 1023.22 1023.38 1023.34 1023.02 1023.11 1023.47 1022.64 1022.43 1022.36 1022.09 1021.94 1021.97 1021.70 1021.72 1021.89 1022.07 1022.16 1021.84 1021.39 1020.91 1019.43 1018.73 1018.56 1017.36 1016.54 1016.59 1016.70 1016.15 1014.24 1013.25 1013.13 1013.07 1012.71 1012.27 1012.09 1011.66 1011.44
1024.88 1024.66 1024.45 1024.22 1024.23 1024.01 1023.72 1023.52 1023.65 1023.86 1023.71 1023.74 1023.79 1023.45 1023.11 1022.87 1022.65 1021.92 1021.78 1021.78 1021.72 1021.80 1021.83 1021.74 1021.54 1020.13 1019.19 1019.16 1018.42 1017.87 1017.59 1016.68 1016.04 1016.49 1016.65 1015.40 1014.18 1012.58 1012.80 1012.52 1012.16 1011.85 1011.64 1011.59 1011.22
1024.61 1024.38 1024.12 1024.14 1024.20 1024.26 1024.07 1024.42 1025.37 1025.80 1024.73 1024.19 1024.12 1023.91 1023.54 1023.62 1022.69 1021.72 1021.85 1021.82 1021.75 1021.49 1021.33 1021.30 1019.67 1018.12 1017.94 1017.77 1017.85 1017.85 1017.32 1015.54 1015.32 1016.01 1016.59 1015.04 1013.43 1012.50 1012.09 1011.88 1011.46 1011.20 1010.81 1010.84 1010.71
1024.38 1024.30 1024.30 1024.15 1024.31 1024.56 1024.82 1025.47 1025.82 1025.83 1025.35 1024.33 1024.08 1023.90 1023.67 1023.70 1022.73 1021.55 1021.62 1021.37 1021.52 1021.17 1020.77 1019.97 1017.34 1017.22 1017.22 1016.96 1016.90 1016.56 1016.20 1015.21 1015.39 1015.87 1016.24 1015.01 1013.22 1011.97 1010.99 1011.24 1010.78 1010.25 1010.22 1010.19 1010.08
1024.04 1024.21 1024.24 1024.36 1024.60 1025.25 1025.52 1025.89 1025.92 1025.97 1025.61 1024.78 1024.06 1023.96 1023.66 1023.24 1022.34 1021.19 1021.11 1021.22 1020.96 1020.50 1019.99 1018.74 1016.84 1016.70 1016.26 1015.55 1015.92 1014.81 1014.63 1014.96 1015.24 1015.75 1014.63 1014.28 1011.89 1010.69 1009.74 1009.43 1009.49 1009.02 1009.17 1009.39 1009.47
1023.88 1024.09 1024.23 1024.28 1024.77 1025.48 1026.27 1026.07 1026.09 1025.95 1026.05 1025.21 1024.44 1024.06 1023.67 1023.58 1022.50 1020.78 1020.94 1020.79 1020.27 1019.89 1020.02 1017.22 1016.21 1015.97 1015.41 1014.31 1014.77 1013.62 1013.94 1014.48 1014.87 1015.00 1014.71 1013.26 1012.72 1009.46 1009.11 1008.07 1008.07 1008.00 1008.29 1008.60 1008.79
1023.88 1024.15 1024.34 1024.71 1025.19 1026.17 1026.17 1026.03 1026.08 1026.46 1026.17 1025.90 1025.39 1024.69 1024.27 1023.52 1022.69 1021.56 1020.94 1020.92 1019.82 1019.20 1018.30 1017.03 1015.55 1015.40 1014.19 1013.94 1014.16 1014.28 1014.43 1014.56 1014.80 1014.62 1013.28 1011.48 1011.90 1008.04 1007.73 1007.00 1007.10 1006.97 1007.49 1007.92 1008.52
1024.35 1024.61 1024.74 1025.20 1025.87 1026.21 1025.99 1025.68 1026.51 1027.12 1027.91 1027.31 1026.63 1025.88 1025.60 1024.40 1022.96 1022.30 1021.33 1020.60 1019.97 1019.05 1017.34 1016.25 1014.99 1014.51 1014.64 1014.14 1014.14 1014.30 1014.36 1014.17 1013.96 1013.41 1011.48 1010.82 1010.88 1008.28 1008.09 1007.63 1007.22 1006.99 1007.11 1007.91 1009.47
1024.59 1024.81 1025.98 1026.10 1026.24 1026.19 1025.83 1025.94 1027.24 1028.89 1028.72 1028.30 1027.42 1026.67 1026.19 1025.18 1023.81 1023.09 1021.96 1020.89 1020.13 1020.04 1018.53 1017.21 1014.86 1014.63 1014.58 1014.25 1013.80 1013.52 1013.60 1013.12 1012.50 1011.85 1010.87 1011.33 1010.14 1009.01 1009.01 1008.42 1007.80 1007.91 1007.88 1009.05 1010.20
1024.55 1025.43 1026.12 1026.51 1026.32 1026.16 1026.07 1027.27 1028.82 1029.31 1029.27 1028.81 1027.98 1027.53 1026.78 1026.02 1025.47 1024.09 1022.73 1021.91 1021.03 1020.75 1020.61 1018.80 1015.81 1014.22 1014.38 1013.95 1013.89 1013.22 1012.83 1012.28 1012.03 1011.37 1010.82 1009.91 1009.96 1009.66 1009.58 1008.38 1007.71 1008.52 1009.58 1010.12 1011.39
1024.76 1025.68 1026.68 1026.80 1026.61 1026.33 1027.04 1029.08 1030.02 1029.81 1029.37 1029.14 1028.87 1028.68 1027.93 1026.73 1025.91 1024.80 1023.46 1022.35 1021.71 1021.57 1021.49 1019.71 1017.20 1014.42 1014.28 1013.89 1013.68 1013.19 1012.56 1012.41 1011.73 1010.71 1008.97 1009.40 1010.23 1010.88 1010.32 1009.66 1009.42 1009.99 1010.78 1011.56 1012.66
1024.79 1025.99 1026.93 1026.89 1026.59 1026.99 1028.82 1030.22 1030.52 1029.85 1029.54 1029.33 1029.04 1028.70 1028.12 1027.51 1026.58 1025.49 1024.16 1022.72 1022.41 1021.49 1021.02 1020.03 1018.79 1015.23 1014.46 1014.68 1014.39 1013.22 1012.07 1011.35 1010.57 1010.11 1008.94 1009.87 1012.00 1012.71 1011.64 1011.40 1011.02 1011.44 1011.88 1012.53 1013.39
1025.08 1026.39 1027.05 1026.90 1027.69 1029.74 1030.16 1030.63 1030.47 1029.61 1029.26 1029.12 1029.05 1028.59 1028.10 1027.54 1026.72 1025.85 1024.75 1023.79 1022.89 1022.40 1021.00 1020.07 1019.03 1016.67 1015.52 1014.79 1014.41 1013.46 1011.42 1010.68 1010.39 1009.97 1010.36 1011.07 1013.45 1013.92 1013.39 1013.12 1012.80 1012.81 1013.38 1014.08 1014.24
1025.51 1026.50 1027.10 1027.16 1028.31 1029.83 1030.68 1030.69 1030.33 1029.54 1029.24 1028.92 1028.65 1028.44 1028.00 1027.69 1027.18 1025.83 1024.65 1023.42 1023.09 1022.47 1021.74 1020.30 1019.29 1017.54 1015.58 1014.96 1014.29 1013.28 1011.88 1010.99 1011.03 1010.97 1012.05 1012.53 1014.84 1015.27 1014.57 1014.32 1014.25 1014.45 1014.76 1015.03 1015.27
1025.59 1026.73 1027.47 1028.32 1029.12 1029.02 1029.89 1030.11 1029.84 1029.49 1029.03 1028.82 1028.62 1028.42 1027.94 1027.50 1027.15 1026.07 1024.74 1023.36 1022.62 1022.48 1021.56 1020.53 1020.19 1019.59 1018.66 1017.78 1017.10 1015.12 1014.04 1013.51 1012.58 1013.12 1014.73 1015.59 1016.28 1016.20 1016.08 1015.96 1016.04 1016.05 1016.19 1016.55 1017.14
1025.73 1027.01 1027.61 1028.47 1028.92 1028.86 1029.00 1029.36 1029.20 1028.93 1028.85 1028.75 1028.69 1028.44 1028.09 1027.59 1026.91 1026.23 1025.11 1023.85 1022.58 1022.68 1022.04 1021.68 1021.13 1020.25 1019.68 1018.88 1017.93 1017.40 1016.71 1015.98 1015.15 1016.02 1016.34 1017.38 1017.24 1017.91 1017.99 1017.74 1017.48 1017.56 1017.74 1017.95 1018.19
1025.29 1026.30 1027.42 1028.19 1028.31 1028.34 1028.68 1028.67 1028.52 1028.43 1028.46 1028.33 1028.50 1028.09 1027.88 1027.62 1026.80 1026.30 1025.89 1025.08 1024.48 1023.21 1022.97 1022.84 1021.72 1021.04 1019.91 1018.88 1018.35 1018.34 1018.46 1018.26 1017.97 1017.89 1017.92 1018.33 1018.50 1019.43 1019.21 1018.76 1018.64 1018.90 1019.22 1019.47 1019.47
1025.01 1025.53 1025.63 1027.73 1027.97 1027.92 1027.84 1027.85 1027.84 1027.96 1027.74 1027.91 1028.06 1028.24 1027.60 1026.92 1026.73 1026.21 1026.16 1025.82 1025.73 1025.59 1024.48 1023.77 1023.10 1021.74 1020.37 1019.60 1018.68 1018.87 1020.76 1020.55 1020.16 1019.94 1019.78 1019.60 1020.74 1020.58 1020.28 1020.44 1020.68 1020.47 1020.48 1020.56 1020.88
Wind_Speed
8 8 8 8 8 9 11 11 12 12 10 12 11 13 16 17 15 9 4 3 2 8 4 4 5 6 3 2 3 3 8 14 20 17 16 10 13 13 6 8 9 9 12 6 8
6 7 8 9 9 8 10 12 11 12 12 9 11 12 15 15 12 4 7 7 5 2 3 7 7 6 1 1 2 8 8 12 8 5 9 7 6 6 6 12 11 10 7 7 10
5 8 10 13 9 8 10 11 12 12 13 12 11 11 13 10 6 2 2 10 11 8 6 4 4 5 2 2 3 4 9 6 11 7 9 9 12 8 7 14 12 10 9 15 15
5 8 9 10 11 11 12 12 13 13 12 12 13 10 7 6 6 1 5 12 8 6 4 4 5 6 4 5 4 8 9 10 8 9 10 14 13 15 14 15 12 12 11 14 16
7 6 8 10 12 13 13 13 13 14 13 13 13 9 3 6 6 4 7 6 3 3 5 9 9 7 8 4 7 14 13 12 12 14 16 17 19 20 21 16 15 21 19 18 16
7 10 10 11 11 11 12 13 14 14 15 14 14 6 2 11 2 4 4 3 4 2 1 2 2 2 8 9 11 8 14 17 16 15 12 16 19 18 16 12 13 13 16 15 16
9 10 10 11 13 13 14 15 16 16 15 14 13 2 5 13 1 2 2 6 4 4 7 6 6 5 3 7 6 11 17 18 18 17 16 12 23 25 16 16 20 17 16 16 19
8 9 13 12 10 10 11 13 14 15 14 13 10 1 7 2 4 6 5 7 9 10 10 9 4 6 10 7 9 11 13 13 2 6 6 9 25 16 6 11 16 17 16 19 17
10 9 7 8 9 10 13 14 15 12 7 6 2 4 6 5 3 4 4 6 2 2 4 2 6 5 4 9 11 9 12 18 17 14 5 14 19 14 7 14 19 19 18 18 17
11 5 7 9 10 11 11 13 5 2 3 4 4 3 2 3 4 6 3 5 6 3 3 6 5 5 6 10 12 11 13 16 16 1 14 15 25 20 18 16 18 17 13 13 16
8 9 9 8 9 5 5 2 2 1 3 3 6 5 6 9 8 4 2 3 4 4 6 7 6 14 21 22 23 19 20 25 19 8 12 19 23 25 20 19 19 19 17 17 20
11 11 6 5 3 4 3 4 4 2 7 1 4 5 6 3 6 6 4 5 4 8 7 6 14 24 21 20 22 23 24 28 25 18 14 21 26 24 22 20 21 21 19 17 17
8 5 3 3 5 4 5 5 2 1 4 3 3 4 4 3 6 7 7 2 5 9 12 11 20 13 17 19 20 22 26 25 25 11 17 20 22 24 24 21 23 23 21 19 20
10 2 2 6 2 1 3 3 3 1 2 5 2 1 3 6 6 6 5 4 4 8 8 13 16 13 15 23 21 23 24 26 23 13 12 15 10 16 19 20 22 23 21 20 20
0 7 8 2 5 2 3 3 1 2 1 11 6 4 12 3 9 3 1 4 12 12 4 13 16 17 17 25 18 19 12 12 17 15 19 22 10 16 20 18 21 22 20 21 21
11 13 10 4 3 2 1 2 1 1 3 5 6 11 12 4 3 7 4 6 10 12 15 23 16 16 16 15 12 4 2 5 9 10 14 17 18 17 18 21 23 23 20 22 15
13 12 6 2 3 2 1 1 1 4 3 7 7 11 12 7 8 5 9 8 5 9 12 17 4 4 5 5 3 5 6 3 5 7 9 2 12 17 11 8 9 13 20 15 15
12 10 8 3 2 2 1 3 4 2 4 4 7 11 5 9 3 10 7 7 4 8 12 11 11 2 2 7 5 11 7 5 7 5 4 4 8 3 12 12 16 17 14 17 14
9 3 3 5 4 2 3 4 1 4 3 8 7 5 6 4 5 8 5 5 6 7 8 9 8 4 12 9 4 6 11 5 6 5 7 7 2 4 16 8 11 17 15 14 12
3 3 2 7 4 2 4 2 2 3 2 2 5 2 5 8 9 10 6 3 7 8 9 5 12 2 6 5 3 6 2 5 6 5 6 4 4 11 15 11 12 16 14 14 12
3 2 2 4 2 5 3 2 5 7 5 1 3 4 5 5 6 6 7 10 6 12 14 8 5 9 7 7 12 7 5 6 4 6 5 4 4 13 13 11 10 12 12 13 13
3 1 3 2 4 2 2 5 6 3 2 2 4 5 4 5 5 5 5 6 11 12 11 4 5 8 5 3 14 8 11 5 5 3 5 3 5 15 11 11 10 14 14 13 13
3 1 3 1 2 2 1 2 3 2 2 2 3 3 4 3 5 6 5 5 8 10 13 9 6 8 7 3 16 8 20 5 8 4 15 5 5 10 14 15 15 13 13 14 16
3 2 3 4 2 6 5 3 2 3 2 2 3 3 5 3 5 6 7 6 12 5 16 4 4 7 9 9 12 18 27 26 11 10 13 12 11 15 16 15 13 14 16 14 12
3 1 2 3 2 4 2 5 3 3 3 3 3 5 2 4 4 4 5 11 9 9 10 6 4 3 5 13 19 24 24 25 24 15 11 11 17 15 14 13 14 13 14 13 14
5 5 3 2 4 6 1 5 5 3 4 3 4 5 6 5 4 5 7 4 4 13 9 10 3 3 1 8 10 21 24 21 21 13 14 12 17 12 13 14 17 14 12 12 13
2 2 2 3 4 3 4 5 5 4 4 4 4 3 6 9 7 11 11 13 11 8 7 8 7 6 3 8 8 12 16 16 12 16 9 13 8 10 16 17 16 13 14 13 11
Wind_Direction
350 347 341 344 335 347 340 331 328 340 328 340 338 329 326 332 327 328 20 333 321 320 11 340 359 357 312 296 300 238 246 248 243 241 245 243 254 230 321 271 233 226 246 13 3
348 345 334 328 319 331 331 326 329 331 329 329 326 328 331 344 332 31 360 96 1 358 5 4 5 360 321 315 240 227 240 257 275 305 257 296 261 300 292 233 238 240 240 3 359
341 330 327 331 324 324 326 328 321 315 319 322 320 327 329 334 313 91 24 60 31 28 46 36 17 8 314 282 204 230 250 291 265 299 302 286 280 265 264 250 242 274 321 326 329
327 328 324 335 335 329 319 316 312 314 318 319 318 323 339 334 330 184 5 360 349 351 350 348 336 332 306 270 255 263 253 262 279 289 296 276 290 271 262 271 299 292 298 307 307
326 329 330 322 318 316 316 314 310 309 310 310 310 340 307 293 272 282 332 4 351 326 312 308 292 291 272 275 281 257 268 268 270 268 269 276 264 267 270 275 282 282 282 283 280
335 325 318 317 314 314 314 311 306 302 301 307 316 342 221 283 67 264 328 348 354 325 4 292 311 343 285 270 264 297 285 281 270 265 266 266 265 260 253 269 273 268 278 270 268
325 316 316 311 308 307 306 308 305 304 309 309 312 314 231 266 255 233 254 284 266 247 269 262 263 258 331 285 306 284 289 288 266 249 251 256 264 249 255 250 258 259 268 268 262
311 310 312 313 315 317 316 314 308 306 305 307 306 238 265 43 307 279 270 265 249 254 257 271 223 248 244 279 274 275 278 283 324 229 232 203 268 261 271 232 246 248 252 258 264
299 302 328 325 318 317 314 310 308 312 328 314 177 197 268 311 273 310 235 266 253 208 222 190 171 202 187 227 254 219 265 248 271 234 233 207 266 277 266 248 257 260 251 256 260
301 319 306 306 307 313 318 316 10 97 39 95 81 234 237 337 302 295 263 252 254 222 206 203 200 211 208 208 239 240 239 250 251 109 220 232 249 262 268 263 262 261 257 257 265
324 303 302 307 314 349 342 339 297 170 41 320 309 275 297 318 276 245 230 203 211 197 226 196 212 227 230 222 239 272 268 269 271 279 252 242 254 263 262 261 259 256 255 252 260
300 293 310 359 63 49 57 58 55 22 304 22 270 270 287 298 296 282 188 230 178 246 243 231 229 240 252 254 248 249 257 259 269 254 236 258 258 261 263 257 259 260 249 247 253
292 18 28 103 103 48 70 81 27 226 281 307 305 298 310 288 300 282 197 222 233 258 253 255 261 271 254 255 250 236 239 256 254 280 237 266 268 262 258 247 253 250 249 248 247
283 236 107 133 105 102 67 37 65 279 344 354 347 37 294 296 262 242 233 267 248 285 265 254 265 264 256 252 244 254 237 249 262 255 250 199 270 261 250 241 240 247 236 231 239
94 129 107 38 120 67 49 46 78 216 304 340 315 326 328 281 324 202 214 230 266 266 252 262 284 273 255 260 270 269 288 234 240 250 264 246 254 256 249 254 247 244 233 224 228
130 124 119 78 78 50 28 89 213 253 303 343 319 347 353 320 286 307 286 226 272 279 252 258 263 275 265 275 256 296 132 201 236 246 245 247 221 261 244 243 253 242 221 216 205
111 81 65 38 81 358 163 112 2 61 23 331 334 337 335 296 312 321 319 300 304 310 317 313 256 282 250 258 171 164 161 208 222 217 255 315 207 256 325 237 242 264 210 175 153
104 83 64 52 7 245 198 68 49 93 276 318 316 325 319 341 314 319 304 325 360 306 307 339 319 204 161 234 253 192 192 195 239 222 287 145 239 228 312 273 262 259 147 143 116
113 57 56 3 351 285 70 55 230 194 288 325 323 349 323 333 328 337 329 306 326 353 358 306 268 246 288 277 216 167 217 200 275 242 271 198 308 209 349 312 156 118 129 103 106
93 84 47 330 332 61 70 123 205 229 285 335 359 3 315 320 330 341 318 328 318 1 350 283 288 245 307 294 269 259 106 192 209 264 233 94 59 336 339 6 113 107 106 100 104
79 87 40 5 13 48 77 165 229 234 238 293 296 292 272 302 310 312 296 302 358 322 323 277 249 308 322 30 345 317 266 246 235 238 312 61 28 343 7 25 73 94 94 95 92
108 104 28 282 47 27 116 175 212 255 90 253 265 262 254 303 295 288 289 293 333 328 328 276 306 305 308 343 353 291 291 234 272 78 48 76 46 352 20 34 63 76 78 78 77
106 99 70 295 152 107 188 254 242 230 191 254 254 253 297 275 302 271 288 279 331 337 340 328 347 324 344 326 2 352 19 45 45 21 25 40 10 354 24 34 38 65 72 69 61
119 123 28 58 11 128 146 180 214 244 246 282 287 305 291 268 224 295 302 290 318 328 350 324 26 24 13 349 350 19 25 33 48 59 63 56 52 19 27 35 41 50 58 60 62
25 126 42 159 147 121 140 161 178 168 223 212 258 232 303 295 294 255 299 311 315 -0 3 36 348 355 65 41 34 31 23 27 43 34 51 46 51 27 31 42 46 56 57 57 59
136 150 101 99 130 133 32 200 186 195 196 204 232 281 264 232 237 301 341 329 344 327 355 360 306 330 236 340 28 33 20 26 32 24 49 50 53 16 31 41 44 45 52 55 58
155 74 103 159 150 162 195 177 195 157 206 244 270 304 265 259 272 277 276 272 278 309 321 350 334 353 14 353 338 30 360 359 22 24 15 39 32 28 41 40 27 40 51 54 57